TimePST,TemperatureF,Dew PointF,Humidity,Sea Level PressureIn,VisibilityMPH,Wind Direction,Wind SpeedMPH,Gust SpeedMPH,PrecipitationIn,Events,Conditions,WindDirDegrees,DateUTC
12:53 AM,37.0,30.9,79,30.12,10.0,WNW,6.9,-,N/A,,Clear,300,2013-02-10 08:53:00
1:53 AM,37.0,30.0,76,30.12,10.0,NW,4.6,-,N/A,,Clear,310,2013-02-10 09:53:00
2:53 AM,35.1,30.0,82,30.12,10.0,Calm,Calm,-,N/A,,Clear,0,2013-02-10 10:53:00
3:53 AM,35.1,30.0,82,30.10,10.0,West,3.5,-,N/A,,Clear,280,2013-02-10 11:53:00
4:53 AM,32.0,28.0,85,30.11,10.0,Calm,Calm,-,N/A,,Clear,0,2013-02-10 12:53:00
5:53 AM,33.1,30.0,89,30.12,10.0,WNW,3.5,-,N/A,,Clear,300,2013-02-10 13:53:00
6:53 AM,34.0,30.0,85,30.12,10.0,WNW,3.5,-,N/A,,Clear,290,2013-02-10 14:53:00
7:53 AM,34.0,30.9,89,30.13,10.0,Calm,Calm,-,N/A,,Clear,0,2013-02-10 15:53:00
8:53 AM,39.9,33.1,77,30.13,10.0,Calm,Calm,-,N/A,,Clear,0,2013-02-10 16:53:00
9:53 AM,45.0,34.0,65,30.13,10.0,Calm,Calm,-,N/A,,Clear,0,2013-02-10 17:53:00
10:53 AM,50.0,34.0,54,30.12,10.0,Calm,Calm,-,N/A,,Clear,0,2013-02-10 18:53:00
11:53 AM,53.1,34.0,48,30.09,10.0,Calm,Calm,-,N/A,,Clear,0,2013-02-10 19:53:00
12:53 PM,55.0,33.1,43,30.06,10.0,Variable,4.6,-,N/A,,Clear,0,2013-02-10 20:53:00
1:53 PM,55.0,37.0,51,30.05,10.0,South,6.9,-,N/A,,Clear,190,2013-02-10 21:53:00
2:53 PM,54.0,41.0,62,30.04,10.0,SW,4.6,-,N/A,,Clear,230,2013-02-10 22:53:00
3:53 PM,53.1,43.0,69,30.04,10.0,SW,4.6,-,N/A,,Clear,220,2013-02-10 23:53:00
4:53 PM,51.1,44.1,77,30.04,10.0,South,4.6,-,N/A,,Clear,180,2013-02-11 00:53:00
5:53 PM,46.0,42.1,86,30.04,10.0,Calm,Calm,-,N/A,,Clear,0,2013-02-11 01:53:00
6:53 PM,46.9,43.0,86,30.06,10.0,Calm,Calm,-,N/A,,Clear,0,2013-02-11 02:53:00
7:53 PM,44.1,41.0,89,30.07,10.0,NW,4.6,-,N/A,,Clear,320,2013-02-11 03:53:00
8:53 PM,43.0,39.0,86,30.07,10.0,Calm,Calm,-,N/A,,Clear,0,2013-02-11 04:53:00
9:53 PM,41.0,37.0,86,30.07,10.0,NW,5.8,-,N/A,,Clear,310,2013-02-11 05:53:00
10:53 PM,39.9,36.0,86,30.08,10.0,NW,4.6,-,N/A,,Clear,320,2013-02-11 06:53:00
11:53 PM,39.0,35.1,86,30.09,10.0,NW,3.5,-,N/A,,Clear,320,2013-02-11 07:53:00